Regional Weather Roundup
Issued by NWS

Home | Current Version | Previous Version | Text Only | Print | Product List | Glossary Off
Versions: 1 2 3 4 5 6 7 8 9 10 11 12 13 14 15 16 17 18 19 20 21 22 23 24 25 26 27 28 29 30 31 32 33 34 35 36 37 38 39 40 41 42 43 44 45 46 47 48 49 50

000
ASUS43 KOAX 292002
RWRNE

WEATHER ROUNDUP FOR NEBRASKA
NATIONAL WEATHER SERVICE OMAHA NE
300 PM CDT FRI AUG 29 2014

NOTES: SATELLITE DATA IS BEING USED TO AUGMENT CLOUD COVER ABOVE
       12000 FEET.
       "FAIR" INDICATES FEW OR NO CLOUDS BELOW 12,000 FEET WITH NO
       SIGNIFICANT WEATHER AND/OR OBSTRUCTIONS TO VISIBILITY.

  * THESE STATIONS DO NOT REPORT WEATHER SUCH AS RAIN...SNOW OR FOG.

NEZ001>004-019>022-054>056-292100-
NEBRASKA PANHANDLE

CITY           SKY/WX    TMP DP  RH WIND       PRES   REMARKS
SCOTTSBLUFF    MOSUNNY   81  52  36 VRB7      30.03S
ALLIANCE       MOSUNNY   78  53  41 N20       30.01S
CHADRON        MOSUNNY   74  57  55 NE14G23   30.02R
KIMBALL        MOSUNNY   76  48  37 N13       30.06F
SIDNEY         MOSUNNY   83  52  34 N13       30.03S
$$

NEZ057>060-069>072-079>082-292100-
SOUTHWEST NEBRASKA

CITY           SKY/WX    TMP DP  RH WIND       PRES   REMARKS
NORTH PLATTE   SUNNY     85  54  34 NE7G17    29.88F
IMPERIAL       MOSUNNY   84  53  34 N14       29.94S
LEXINGTON      SUNNY     83  57  41 N10       29.86S
MCCOOK         SUNNY     86  54  33 N12       29.89S
OGALLALA       SUNNY     83  50  32 N13G20    29.94S
$$

NEZ005>010-023>029-035>040-094-292100-
NORTH CENTRAL NEBRASKA

CITY           SKY/WX    TMP DP  RH WIND       PRES   REMARKS
VALENTINE      SUNNY     84  60  44 NW17G24   29.88S
AINSWORTH      SUNNY     81  60  48 N7        29.87S
BROKEN BOW     MOSUNNY   83  58  42 N15G21    29.85F
O`NEILL        PTSUNNY   70  68  95 N6        29.85F THUNDER
ORD            MOSUNNY   76  66  71 E8G16     29.83R
THEDFORD       MOSUNNY   85  55  35 N14G22    29.90S
$$

NEZ041-046>049-061>064-073>077-083>087-292100-
SOUTH CENTRAL NEBRASKA

CITY           SKY/WX    TMP DP  RH WIND       PRES   REMARKS
GRAND ISLAND   PTSUNNY   78  65  63 CALM      29.84S
AURORA         CLOUDY    72  68  87 W5        29.83S
HASTINGS       PTSUNNY   77  62  59 VRB3      29.83F
HEBRON         CLOUDY    71  64  79 S5        29.83F
HOLDREGE       SUNNY     79  60  52 W7        29.86F
KEARNEY *      MOSUNNY   81  63  54 CALM      29.84F
$$

NEZ011>018-030>034-042>045-292100-
NORTHEAST NEBRASKA

CITY           SKY/WX    TMP DP  RH WIND       PRES   REMARKS
NORFOLK        CLOUDY    73  67  81 NW7       29.81S
ALBION         CLOUDY    72  66  81 NW6       29.83S THUNDER
BLAIR          CLOUDY    77  69  75 SE9       29.78F
FREMONT        CLOUDY    73  70  90 W7        29.78F
TEKAMAH        CLOUDY    78  71  79 S7        29.77F
WAYNE          CLOUDY    71  66  83 NW5       29.80S
$$

NEZ050>053-065>068-078-088>093-292100-
SOUTHEAST NEBRASKA

CITY           SKY/WX    TMP DP  RH WIND       PRES   REMARKS
LINCOLN        CLOUDY    75  65  70 SW13      29.79F
OMAHA EPPLEY   PTSUNNY   78  67  68 S10       29.78F
BEATRICE       CLOUDY    73  67  82 S9        29.80F
FALLS CITY     MOSUNNY   83  68  60 S7        29.80F
PLATTSMOUTH    CLOUDY    75  68  79 SE5       29.79F
$$

NEZ044-045-051>053-067-292100-
OMAHA AREA

CITY           SKY/WX    TMP DP  RH WIND       PRES   REMARKS
OMAHA EPPLEY   PTSUNNY   78  67  68 S10       29.78F
BLAIR          CLOUDY    77  69  75 SE9       29.78F
FREMONT        CLOUDY    73  70  90 W7        29.78F
MILLARD        PTSUNNY   78  68  71 SW6       29.77F
OFFUTT AFB     PTSUNNY   77  73  88 SE10      29.78F
PLATTSMOUTH    CLOUDY    75  68  79 SE5       29.79F
WAHOO          CLOUDY    74  65  72 W8        29.79F
$$


USA.gov is the U.S. government's official web portal to all federal, state and local government web resources and services.